Time,TemperatureF,DewpointF,PressureIn,WindDirection,WindDirectionDegrees,WindSpeedMPH,WindSpeedGustMPH,Humidity,HourlyPrecipIn,Conditions,Clouds,dailyrainin,SoftwareType,DateUTC
2013-03-13 00:00:00,52.4,50.7,29.73,SSW,203,1.8,3.4,94,0.00,,,0.40,WUHU216HW,2013-03-13 04:00:00,
2013-03-13 00:05:00,52.6,50.9,29.73,SW,225,1.8,3.6,94,0.00,,,0.00,WUHU216HW,2013-03-13 04:05:00,
2013-03-13 00:10:00,52.7,51.0,29.73,SW,225,4.0,6.5,94,0.00,,,0.00,WUHU216HW,2013-03-13 04:10:00,
2013-03-13 00:15:00,52.9,51.5,29.73,SW,225,6.7,6.7,95,0.00,,,0.00,WUHU216HW,2013-03-13 04:15:00,
2013-03-13 00:20:00,52.9,51.5,29.73,WSW,248,4.7,6.7,95,0.00,,,0.00,WUHU216HW,2013-03-13 04:20:00,
2013-03-13 00:25:00,52.9,51.2,29.74,WSW,248,2.2,6.7,94,0.00,,,0.00,WUHU216HW,2013-03-13 04:25:00,
2013-03-13 00:30:00,52.7,50.8,29.74,WSW,248,5.4,6.3,93,0.00,,,0.00,WUHU216HW,2013-03-13 04:30:00,
2013-03-13 00:35:00,52.6,50.6,29.73,WSW,248,1.8,6.3,93,0.00,,,0.00,WUHU216HW,2013-03-13 04:35:00,
2013-03-13 00:40:00,52.6,50.6,29.73,WSW,248,3.4,5.1,93,0.00,,,0.00,WUHU216HW,2013-03-13 04:40:00,
2013-03-13 00:45:00,52.4,50.4,29.72,WSW,248,1.8,4.5,93,0.00,,,0.00,WUHU216HW,2013-03-13 04:45:00,
2013-03-13 00:50:00,52.2,50.2,29.73,SW,225,2.2,6.0,93,0.00,,,0.00,WUHU216HW,2013-03-13 04:50:00,
2013-03-13 00:55:00,52.2,49.9,29.74,WNW,293,3.6,6.7,92,0.00,,,0.00,WUHU216HW,2013-03-13 04:55:00,
2013-03-13 01:00:00,51.8,49.5,29.74,WSW,248,6.3,7.4,92,0.00,,,0.00,WUHU216HW,2013-03-13 05:00:00,
2013-03-13 01:05:00,51.5,48.9,29.74,WSW,248,2.2,8.3,91,0.00,,,0.00,WUHU216HW,2013-03-13 05:05:00,
2013-03-13 01:10:00,50.8,48.2,29.74,WSW,248,3.8,9.4,91,0.00,,,0.00,WUHU216HW,2013-03-13 05:10:00,
2013-03-13 01:15:00,50.2,47.1,29.74,WSW,248,9.8,10.5,89,0.00,,,0.00,WUHU216HW,2013-03-13 05:15:00,
2013-03-13 01:20:00,49.7,46.5,29.74,NW,315,4.7,10.5,89,0.00,,,0.00,WUHU216HW,2013-03-13 05:20:00,
2013-03-13 01:25:00,49.3,46.2,29.74,SW,225,4.9,10.1,89,0.00,,,0.00,WUHU216HW,2013-03-13 05:25:00,
2013-03-13 01:30:00,48.8,45.1,29.74,WSW,248,3.6,13.6,87,0.00,,,0.00,WUHU216HW,2013-03-13 05:30:00,
2013-03-13 01:35:00,48.4,45.1,29.74,NW,315,6.9,13.6,88,0.00,,,0.00,WUHU216HW,2013-03-13 05:35:00,
2013-03-13 01:40:00,47.9,44.6,29.74,WSW,248,6.9,9.6,88,0.00,,,0.00,WUHU216HW,2013-03-13 05:40:00,
2013-03-13 01:45:00,47.5,43.8,29.75,WSW,248,3.1,11.6,87,0.00,,,0.00,WUHU216HW,2013-03-13 05:45:00,
2013-03-13 01:50:00,47.0,43.4,29.75,WNW,293,7.2,11.6,87,0.00,,,0.00,WUHU216HW,2013-03-13 05:50:00,
2013-03-13 01:55:00,46.6,43.0,29.75,WNW,293,2.5,9.2,87,0.00,,,0.00,WUHU216HW,2013-03-13 05:55:00,
2013-03-13 02:00:00,46.3,42.7,29.75,WNW,293,6.9,7.2,87,0.00,,,0.00,WUHU216HW,2013-03-13 06:00:00,
2013-03-13 02:05:00,45.9,42.3,29.75,WNW,293,6.9,6.9,87,0.00,,,0.00,WUHU216HW,2013-03-13 06:05:00,
2013-03-13 02:10:00,45.7,42.4,29.75,NW,315,3.4,6.9,88,0.00,,,0.00,WUHU216HW,2013-03-13 06:10:00,
2013-03-13 02:15:00,45.5,42.0,29.75,WSW,248,2.9,6.9,87,0.00,,,0.00,WUHU216HW,2013-03-13 06:15:00,
2013-03-13 02:20:00,45.4,42.0,29.75,West,270,3.4,6.0,88,0.00,,,0.00,WUHU216HW,2013-03-13 06:20:00,
2013-03-13 02:25:00,45.0,41.7,29.74,West,270,3.8,7.8,88,0.00,,,0.00,WUHU216HW,2013-03-13 06:25:00,
2013-03-13 02:30:00,45.0,41.7,29.74,WSW,248,2.5,7.8,88,0.00,,,0.00,WUHU216HW,2013-03-13 06:30:00,
2013-03-13 02:35:00,44.6,41.3,29.74,NNW,338,3.4,5.6,88,0.00,,,0.00,WUHU216HW,2013-03-13 06:35:00,
2013-03-13 02:40:00,44.3,41.0,29.75,NW,315,4.7,6.9,88,0.00,,,0.00,WUHU216HW,2013-03-13 06:40:00,
2013-03-13 02:45:00,44.1,40.8,29.74,WNW,293,4.7,6.9,88,0.00,,,0.00,WUHU216HW,2013-03-13 06:45:00,
2013-03-13 02:50:00,43.9,40.6,29.74,West,270,5.4,6.9,88,0.00,,,0.00,WUHU216HW,2013-03-13 06:50:00,
2013-03-13 02:55:00,43.6,40.0,29.74,WNW,293,4.9,9.2,87,0.00,,,0.00,WUHU216HW,2013-03-13 06:55:00,
2013-03-13 03:00:00,43.4,39.8,29.74,West,270,4.0,9.2,87,0.00,,,0.00,WUHU216HW,2013-03-13 07:00:00,
2013-03-13 03:05:00,43.2,39.2,29.75,WNW,293,3.1,7.4,86,0.00,,,0.00,WUHU216HW,2013-03-13 07:05:00,
2013-03-13 03:10:00,43.0,39.1,29.75,NW,315,2.5,8.5,86,0.00,,,0.00,WUHU216HW,2013-03-13 07:10:00,
2013-03-13 03:15:00,42.8,38.6,29.75,SW,225,5.1,8.5,85,0.00,,,0.00,WUHU216HW,2013-03-13 07:15:00,
2013-03-13 03:20:00,42.7,38.4,29.76,West,270,3.1,7.2,85,0.00,,,0.00,WUHU216HW,2013-03-13 07:20:00,
2013-03-13 03:25:00,42.5,38.3,29.76,SSW,203,5.6,6.5,85,0.00,,,0.00,WUHU216HW,2013-03-13 07:25:00,
2013-03-13 03:30:00,42.5,38.3,29.76,West,270,2.9,6.0,85,0.00,,,0.00,WUHU216HW,2013-03-13 07:30:00,
2013-03-13 03:35:00,42.1,38.2,29.76,WNW,293,8.5,11.6,86,0.00,,,0.00,WUHU216HW,2013-03-13 07:35:00,
2013-03-13 03:40:00,42.1,37.9,29.75,West,270,6.7,11.6,85,0.00,,,0.00,WUHU216HW,2013-03-13 07:40:00,
2013-03-13 03:45:00,41.8,37.5,29.75,WSW,248,2.9,8.5,85,0.00,,,0.00,WUHU216HW,2013-03-13 07:45:00,
2013-03-13 03:50:00,41.8,37.8,29.75,SW,225,2.2,6.7,86,0.00,,,0.00,WUHU216HW,2013-03-13 07:50:00,
2013-03-13 03:55:00,41.6,37.4,29.75,WSW,248,4.5,6.7,85,0.00,,,0.00,WUHU216HW,2013-03-13 07:55:00,
2013-03-13 04:00:00,41.4,37.2,29.74,WNW,293,2.9,7.6,85,0.00,,,0.00,WUHU216HW,2013-03-13 08:00:00,
2013-03-13 04:06:00,41.2,37.0,29.74,NW,315,1.6,7.6,85,0.00,,,0.00,WUHU216HW,2013-03-13 08:06:00,
2013-03-13 04:11:00,41.0,36.8,29.74,WNW,293,4.5,7.6,85,0.00,,,0.00,WUHU216HW,2013-03-13 08:11:00,
2013-03-13 04:16:00,40.9,36.4,29.74,West,270,2.5,9.4,84,0.00,,,0.00,WUHU216HW,2013-03-13 08:16:00,
2013-03-13 04:21:00,40.7,36.2,29.75,West,270,3.4,9.4,84,0.00,,,0.00,WUHU216HW,2013-03-13 08:21:00,
2013-03-13 04:26:00,40.7,36.2,29.75,West,270,5.1,7.4,84,0.00,,,0.00,WUHU216HW,2013-03-13 08:26:00,
2013-03-13 04:31:00,40.7,36.2,29.75,West,270,3.8,8.1,84,0.00,,,0.00,WUHU216HW,2013-03-13 08:31:00,
2013-03-13 04:36:00,40.5,36.0,29.75,West,270,3.4,8.1,84,0.00,,,0.00,WUHU216HW,2013-03-13 08:36:00,
2013-03-13 04:41:00,40.3,35.8,29.76,WSW,248,3.4,7.6,84,0.00,,,0.00,WUHU216HW,2013-03-13 08:41:00,
2013-03-13 04:46:00,40.1,35.4,29.76,West,270,2.5,8.9,83,0.00,,,0.00,WUHU216HW,2013-03-13 08:46:00,
2013-03-13 04:51:00,40.0,35.5,29.76,WSW,248,3.4,8.9,84,0.00,,,0.00,WUHU216HW,2013-03-13 08:51:00,
2013-03-13 04:56:00,40.0,35.5,29.76,SW,225,2.9,6.9,84,0.00,,,0.00,WUHU216HW,2013-03-13 08:56:00,
2013-03-13 05:01:00,39.8,35.3,29.76,WSW,248,1.1,6.9,84,0.00,,,0.00,WUHU216HW,2013-03-13 09:01:00,
2013-03-13 05:06:00,39.6,35.2,29.76,WNW,293,3.8,8.3,84,0.00,,,0.00,WUHU216HW,2013-03-13 09:06:00,
2013-03-13 05:11:00,39.4,35.0,29.76,West,270,2.2,8.3,84,0.00,,,0.00,WUHU216HW,2013-03-13 09:11:00,
2013-03-13 05:16:00,39.4,35.0,29.77,WSW,248,4.7,6.9,84,0.00,,,0.00,WUHU216HW,2013-03-13 09:16:00,
2013-03-13 05:21:00,39.2,34.8,29.77,SSW,203,1.8,6.9,84,0.00,,,0.00,WUHU216HW,2013-03-13 09:21:00,
2013-03-13 05:26:00,39.2,34.8,29.77,West,270,6.3,6.3,84,0.00,,,0.00,WUHU216HW,2013-03-13 09:26:00,
2013-03-13 05:31:00,39.2,34.8,29.77,WNW,293,4.7,6.3,84,0.00,,,0.00,WUHU216HW,2013-03-13 09:31:00,
2013-03-13 05:36:00,39.2,34.8,29.77,WSW,248,5.8,6.3,84,0.00,,,0.00,WUHU216HW,2013-03-13 09:36:00,
2013-03-13 05:41:00,39.2,34.8,29.77,West,270,5.6,5.8,84,0.00,,,0.00,WUHU216HW,2013-03-13 09:41:00,
2013-03-13 05:46:00,39.2,34.8,29.77,SW,225,3.4,5.8,84,0.00,,,0.00,WUHU216HW,2013-03-13 09:46:00,
2013-03-13 05:51:00,39.2,34.6,29.77,West,270,2.5,7.2,83,0.00,,,0.00,WUHU216HW,2013-03-13 09:51:00,
2013-03-13 05:56:00,39.2,34.6,29.77,West,270,4.3,7.2,83,0.00,,,0.00,WUHU216HW,2013-03-13 09:56:00,
2013-03-13 06:01:00,39.1,34.4,29.77,West,270,4.0,5.4,83,0.00,,,0.00,WUHU216HW,2013-03-13 10:01:00,
2013-03-13 06:06:00,38.9,34.2,29.77,WNW,293,1.6,5.4,83,0.00,,,0.00,WUHU216HW,2013-03-13 10:06:00,
2013-03-13 06:11:00,38.7,34.0,29.77,WNW,293,3.4,4.9,83,0.00,,,0.00,WUHU216HW,2013-03-13 10:11:00,
2013-03-13 06:16:00,38.5,33.9,29.77,West,270,1.1,4.5,83,0.00,,,0.00,WUHU216HW,2013-03-13 10:16:00,
2013-03-13 06:21:00,38.5,34.1,29.77,NW,315,4.0,4.5,84,0.00,,,0.00,WUHU216HW,2013-03-13 10:21:00,
2013-03-13 06:26:00,38.5,34.1,29.76,WSW,248,2.7,5.8,84,0.00,,,0.00,WUHU216HW,2013-03-13 10:26:00,
2013-03-13 06:31:00,38.3,33.9,29.76,WSW,248,1.6,5.8,84,0.00,,,0.00,WUHU216HW,2013-03-13 10:31:00,
2013-03-13 06:36:00,38.3,33.7,29.76,WSW,248,2.5,8.5,83,0.00,,,0.00,WUHU216HW,2013-03-13 10:36:00,
2013-03-13 06:41:00,38.3,33.3,29.76,SW,225,4.3,8.5,82,0.00,,,0.00,WUHU216HW,2013-03-13 10:41:00,
2013-03-13 06:46:00,38.3,33.3,29.76,WNW,293,3.8,6.3,82,0.00,,,0.00,WUHU216HW,2013-03-13 10:46:00,
2013-03-13 06:51:00,38.3,33.3,29.76,NW,315,3.6,7.8,82,0.00,,,0.00,WUHU216HW,2013-03-13 10:51:00,
2013-03-13 06:56:00,38.2,33.1,29.76,WNW,293,3.4,7.8,82,0.00,,,0.00,WUHU216HW,2013-03-13 10:56:00,
2013-03-13 07:01:00,38.2,33.5,29.76,WSW,248,3.4,6.5,83,0.00,,,0.00,WUHU216HW,2013-03-13 11:01:00,
2013-03-13 07:06:00,38.0,33.3,29.76,WNW,293,4.5,6.3,83,0.00,,,0.00,WUHU216HW,2013-03-13 11:06:00,
2013-03-13 07:11:00,38.0,32.9,29.75,NNW,338,1.6,6.3,82,0.00,,,0.00,WUHU216HW,2013-03-13 11:11:00,
2013-03-13 07:16:00,38.0,32.9,29.75,WNW,293,4.0,6.0,82,0.00,,,0.00,WUHU216HW,2013-03-13 11:16:00,
2013-03-13 07:21:00,38.0,33.3,29.76,WSW,248,1.8,6.3,83,0.00,,,0.00,WUHU216HW,2013-03-13 11:21:00,
2013-03-13 07:26:00,38.0,33.3,29.75,NW,315,4.5,6.3,83,0.00,,,0.00,WUHU216HW,2013-03-13 11:26:00,
2013-03-13 07:31:00,38.0,33.3,29.76,West,270,2.2,5.1,83,0.00,,,0.00,WUHU216HW,2013-03-13 11:31:00,
2013-03-13 07:36:00,38.0,33.3,29.76,WNW,293,3.4,5.1,83,0.00,,,0.00,WUHU216HW,2013-03-13 11:36:00,
2013-03-13 07:41:00,38.2,33.5,29.76,NNW,338,4.0,6.7,83,0.00,,,0.00,WUHU216HW,2013-03-13 11:41:00,
2013-03-13 07:45:00,38.3,33.3,29.76,SW,225,1.8,7.2,82,0.00,,,0.00,WUHU216HW,2013-03-13 11:45:00,
2013-03-13 07:50:00,38.5,33.5,29.76,WNW,293,8.5,8.5,82,0.00,,,0.00,WUHU216HW,2013-03-13 11:50:00,
2013-03-13 07:55:00,38.7,33.7,29.76,WNW,293,2.9,8.5,82,0.00,,,0.00,WUHU216HW,2013-03-13 11:55:00,
2013-03-13 08:00:00,38.9,33.8,29.76,NW,315,4.0,8.5,82,0.00,,,0.00,WUHU216HW,2013-03-13 12:00:00,
2013-03-13 08:05:00,39.1,33.8,29.76,West,270,3.4,7.4,81,0.00,,,0.00,WUHU216HW,2013-03-13 12:05:00,
2013-03-13 08:10:00,39.2,33.7,29.76,West,270,3.4,5.6,80,0.00,,,0.00,WUHU216HW,2013-03-13 12:10:00,
2013-03-13 08:15:00,39.2,33.7,29.76,NNW,338,2.0,6.5,80,0.00,,,0.00,WUHU216HW,2013-03-13 12:15:00,
2013-03-13 08:20:00,39.4,33.9,29.76,NW,315,1.1,6.5,80,0.00,,,0.00,WUHU216HW,2013-03-13 12:20:00,
2013-03-13 08:25:00,39.6,34.0,29.76,West,270,4.0,5.1,80,0.00,,,0.00,WUHU216HW,2013-03-13 12:25:00,
2013-03-13 08:30:00,39.8,34.1,29.76,NW,315,10.5,10.5,80,0.00,,,0.00,WUHU216HW,2013-03-13 12:30:00,
2013-03-13 08:35:00,40.0,34.3,29.77,WNW,293,3.8,10.5,80,0.00,,,0.00,WUHU216HW,2013-03-13 12:35:00,
2013-03-13 08:40:00,40.3,34.7,29.76,NW,315,3.1,10.5,80,0.00,,,0.00,WUHU216HW,2013-03-13 12:40:00,
2013-03-13 08:45:00,40.5,34.8,29.76,WNW,293,6.3,8.7,80,0.00,,,0.00,WUHU216HW,2013-03-13 12:45:00,
2013-03-13 08:50:00,40.7,34.9,29.75,West,270,1.8,10.7,80,0.00,,,0.00,WUHU216HW,2013-03-13 12:50:00,
2013-03-13 08:55:00,41.0,34.9,29.75,NW,315,7.6,10.7,79,0.00,,,0.00,WUHU216HW,2013-03-13 12:55:00,
2013-03-13 09:00:00,41.4,34.7,29.75,WNW,293,8.5,9.4,77,0.00,,,0.00,WUHU216HW,2013-03-13 13:00:00,
2013-03-13 09:05:00,41.9,35.6,29.75,WNW,293,6.3,10.5,78,0.00,,,0.00,WUHU216HW,2013-03-13 13:05:00,
2013-03-13 09:10:00,42.1,35.4,29.75,NW,315,7.6,10.5,77,0.00,,,0.00,WUHU216HW,2013-03-13 13:10:00,
2013-03-13 09:15:00,42.5,35.7,29.75,WNW,293,4.7,7.6,77,0.00,,,0.00,WUHU216HW,2013-03-13 13:15:00,
2013-03-13 09:20:00,42.8,35.5,29.75,NW,315,8.5,10.1,75,0.00,,,0.00,WUHU216HW,2013-03-13 13:20:00,
2013-03-13 09:25:00,43.4,35.0,29.75,SW,225,4.0,10.1,72,0.00,,,0.00,WUHU216HW,2013-03-13 13:25:00,
2013-03-13 09:30:00,43.9,36.2,29.76,NNW,338,6.0,8.9,74,0.00,,,0.00,WUHU216HW,2013-03-13 13:30:00,
2013-03-13 09:35:00,44.8,36.6,29.75,West,270,4.7,8.9,73,0.00,,,0.00,WUHU216HW,2013-03-13 13:35:00,
2013-03-13 09:40:00,45.7,36.5,29.75,North,0,6.3,9.2,70,0.00,,,0.00,WUHU216HW,2013-03-13 13:40:00,
2013-03-13 09:45:00,46.8,36.8,29.75,NW,315,6.3,9.6,68,0.00,,,0.00,WUHU216HW,2013-03-13 13:45:00,
2013-03-13 09:50:00,47.7,37.3,29.74,WNW,293,6.3,9.6,67,0.00,,,0.00,WUHU216HW,2013-03-13 13:50:00,
2013-03-13 09:55:00,48.4,37.2,29.74,NNW,338,9.2,10.5,65,0.00,,,0.00,WUHU216HW,2013-03-13 13:55:00,
2013-03-13 10:00:00,49.1,37.4,29.75,North,0,6.3,10.5,64,0.00,,,0.00,WUHU216HW,2013-03-13 14:00:00,
2013-03-13 10:06:00,50.0,37.5,29.75,WSW,248,2.7,10.3,62,0.00,,,0.00,WUHU216HW,2013-03-13 14:06:00,
2013-03-13 10:10:00,51.1,38.5,29.75,NW,315,10.3,10.3,62,0.00,,,0.00,WUHU216HW,2013-03-13 14:10:00,
2013-03-13 10:16:00,51.5,38.0,29.75,NW,315,7.8,12.3,60,0.00,,,0.00,WUHU216HW,2013-03-13 14:16:00,
2013-03-13 10:21:00,52.0,37.2,29.75,WNW,293,7.6,12.3,57,0.00,,,0.00,WUHU216HW,2013-03-13 14:21:00,
2013-03-13 10:26:00,51.8,37.0,29.75,WNW,293,6.3,10.5,57,0.00,,,0.00,WUHU216HW,2013-03-13 14:26:00,
2013-03-13 10:31:00,52.0,37.2,29.75,WNW,293,8.3,11.4,57,0.00,,,0.00,WUHU216HW,2013-03-13 14:31:00,
2013-03-13 10:36:00,51.8,36.1,29.75,West,270,4.7,17.9,55,0.00,,,0.00,WUHU216HW,2013-03-13 14:36:00,
2013-03-13 10:41:00,52.0,37.6,29.74,West,270,7.4,17.9,58,0.00,,,0.00,WUHU216HW,2013-03-13 14:41:00,
2013-03-13 10:46:00,51.8,36.1,29.74,NW,315,11.2,11.2,55,0.00,,,0.00,WUHU216HW,2013-03-13 14:46:00,
2013-03-13 10:51:00,51.7,35.0,29.75,SW,225,2.7,11.2,53,0.00,,,0.00,WUHU216HW,2013-03-13 14:51:00,
2013-03-13 10:56:00,52.2,37.4,29.74,NNE,23,1.6,11.2,57,0.00,,,0.00,WUHU216HW,2013-03-13 14:56:00,
2013-03-13 11:01:00,53.1,36.8,29.74,NNW,338,6.5,8.3,54,0.00,,,0.00,WUHU216HW,2013-03-13 15:01:00,
2013-03-13 11:06:00,54.0,37.2,29.74,SSW,203,2.2,8.3,53,0.00,,,0.00,WUHU216HW,2013-03-13 15:06:00,
2013-03-13 11:11:00,54.7,37.8,29.74,NW,315,1.8,7.4,53,0.00,,,0.00,WUHU216HW,2013-03-13 15:11:00,
2013-03-13 11:16:00,55.3,36.4,29.74,WSW,248,3.4,6.9,49,0.00,,,0.00,WUHU216HW,2013-03-13 15:16:00,
2013-03-13 11:21:00,55.4,38.0,29.74,West,270,6.3,7.6,52,0.00,,,0.00,WUHU216HW,2013-03-13 15:21:00,
2013-03-13 11:26:00,56.2,38.3,29.73,WNW,293,0.9,9.8,51,0.00,,,0.00,WUHU216HW,2013-03-13 15:26:00,
2013-03-13 11:31:00,56.7,38.3,29.74,West,270,8.9,9.8,50,0.00,,,0.00,WUHU216HW,2013-03-13 15:31:00,
2013-03-13 11:36:00,56.5,35.9,29.73,SSW,203,7.8,8.9,46,0.00,,,0.00,WUHU216HW,2013-03-13 15:36:00,
2013-03-13 11:41:00,56.0,37.6,29.74,SW,225,6.0,8.9,50,0.00,,,0.00,WUHU216HW,2013-03-13 15:41:00,
2013-03-13 11:46:00,56.7,35.5,29.73,WSW,248,5.8,8.7,45,0.00,,,0.00,WUHU216HW,2013-03-13 15:46:00,
2013-03-13 11:51:00,56.7,36.6,29.73,NW,315,7.2,9.6,47,0.00,,,0.00,WUHU216HW,2013-03-13 15:51:00,
2013-03-13 11:56:00,57.1,36.4,29.74,NNW,338,4.0,9.6,46,0.00,,,0.00,WUHU216HW,2013-03-13 15:56:00,
2013-03-13 12:01:00,58.0,37.8,29.73,West,270,4.0,8.9,47,0.00,,,0.00,WUHU216HW,2013-03-13 16:01:00,
2013-03-13 12:06:00,58.1,37.4,29.74,WSW,248,5.6,8.9,46,0.00,,,0.00,WUHU216HW,2013-03-13 16:06:00,
2013-03-13 12:11:00,57.6,36.4,29.73,WSW,248,6.5,9.6,45,0.00,,,0.00,WUHU216HW,2013-03-13 16:11:00,
2013-03-13 12:16:00,56.5,36.5,29.74,SW,225,7.6,11.0,47,0.00,,,0.00,WUHU216HW,2013-03-13 16:16:00,
2013-03-13 12:21:00,56.5,36.5,29.74,SSW,203,4.9,11.0,47,0.00,,,0.00,WUHU216HW,2013-03-13 16:21:00,
2013-03-13 12:26:00,56.5,35.9,29.74,SW,225,6.9,10.5,46,0.00,,,0.00,WUHU216HW,2013-03-13 16:26:00,
2013-03-13 12:31:00,56.0,35.9,29.74,West,270,3.4,11.4,47,0.00,,,0.00,WUHU216HW,2013-03-13 16:31:00,
2013-03-13 12:36:00,57.1,36.4,29.74,West,270,7.6,11.4,46,0.00,,,0.00,WUHU216HW,2013-03-13 16:36:00,
2013-03-13 12:41:00,57.1,35.8,29.74,NW,315,6.9,11.4,45,0.00,,,0.00,WUHU216HW,2013-03-13 16:41:00,
2013-03-13 12:47:00,56.9,34.5,29.74,SW,225,4.3,11.4,43,0.00,,,0.00,WUHU216HW,2013-03-13 16:47:00,
2013-03-13 12:52:00,56.5,36.5,29.74,NW,315,4.0,9.6,47,0.00,,,0.00,WUHU216HW,2013-03-13 16:52:00,
2013-03-13 12:57:00,56.2,35.0,29.74,WNW,293,8.5,9.6,45,0.00,,,0.00,WUHU216HW,2013-03-13 16:57:00,
2013-03-13 13:02:00,54.5,34.0,29.74,SW,225,7.2,9.2,46,0.00,,,0.00,WUHU216HW,2013-03-13 17:02:00,
2013-03-13 13:07:00,53.5,33.0,29.74,SW,225,4.3,9.8,46,0.00,,,0.00,WUHU216HW,2013-03-13 17:07:00,
2013-03-13 13:12:00,53.6,33.8,29.73,WNW,293,5.4,9.8,47,0.00,,,0.00,WUHU216HW,2013-03-13 17:12:00,
2013-03-13 13:17:00,53.3,33.0,29.73,NNW,338,9.4,12.8,46,0.00,,,0.00,WUHU216HW,2013-03-13 17:17:00,
2013-03-13 13:22:00,53.1,33.3,29.73,WNW,293,5.1,13.4,47,0.00,,,0.00,WUHU216HW,2013-03-13 17:22:00,
2013-03-13 13:27:00,53.1,33.3,29.73,West,270,4.9,13.4,47,0.00,,,0.00,WUHU216HW,2013-03-13 17:27:00,
2013-03-13 13:32:00,53.8,33.4,29.73,SW,225,6.3,11.4,46,0.00,,,0.00,WUHU216HW,2013-03-13 17:32:00,
2013-03-13 13:37:00,54.0,33.6,29.73,SW,225,3.6,11.4,46,0.00,,,0.00,WUHU216HW,2013-03-13 17:37:00,
2013-03-13 13:42:00,54.0,33.6,29.73,West,270,6.3,10.5,46,0.00,,,0.00,WUHU216HW,2013-03-13 17:42:00,
2013-03-13 13:47:00,54.0,33.6,29.72,West,270,4.5,10.5,46,0.00,,,0.00,WUHU216HW,2013-03-13 17:47:00,
2013-03-13 13:52:00,53.6,33.2,29.72,West,270,8.3,10.5,46,0.00,,,0.00,WUHU216HW,2013-03-13 17:52:00,
2013-03-13 13:57:00,53.3,33.0,29.72,NW,315,4.7,10.5,46,0.00,,,0.00,WUHU216HW,2013-03-13 17:57:00,
2013-03-13 14:02:00,53.1,32.2,29.72,West,270,11.4,11.6,45,0.00,,,0.00,WUHU216HW,2013-03-13 18:02:00,
2013-03-13 14:07:00,52.7,32.4,29.72,WSW,248,6.5,11.9,46,0.00,,,0.00,WUHU216HW,2013-03-13 18:07:00,
2013-03-13 14:12:00,52.4,31.5,29.72,WNW,293,5.6,11.9,45,0.00,,,0.00,WUHU216HW,2013-03-13 18:12:00,
2013-03-13 14:17:00,52.2,31.4,29.72,WNW,293,6.7,10.5,45,0.00,,,0.00,WUHU216HW,2013-03-13 18:17:00,
2013-03-13 14:22:00,52.2,31.4,29.72,WNW,293,4.7,10.5,45,0.00,,,0.00,WUHU216HW,2013-03-13 18:22:00,
2013-03-13 14:27:00,52.4,31.0,29.72,West,270,4.5,10.5,44,0.00,,,0.00,WUHU216HW,2013-03-13 18:27:00,
2013-03-13 14:32:00,52.6,31.1,29.71,NW,315,6.0,10.1,44,0.00,,,0.00,WUHU216HW,2013-03-13 18:32:00,
2013-03-13 14:37:00,52.6,31.1,29.71,NW,315,10.7,10.7,44,0.00,,,0.00,WUHU216HW,2013-03-13 18:37:00,
2013-03-13 14:42:00,52.2,30.8,29.71,WSW,248,4.9,11.2,44,0.00,,,0.00,WUHU216HW,2013-03-13 18:42:00,
2013-03-13 14:47:00,52.4,31.0,29.71,WSW,248,4.9,12.1,44,0.00,,,0.00,WUHU216HW,2013-03-13 18:47:00,
2013-03-13 14:52:00,52.2,30.2,29.71,SW,225,4.0,13.9,43,0.00,,,0.00,WUHU216HW,2013-03-13 18:52:00,
2013-03-13 14:57:00,51.8,29.3,29.71,West,270,4.7,15.0,42,0.00,,,0.00,WUHU216HW,2013-03-13 18:57:00,
2013-03-13 15:02:00,52.0,30.1,29.71,NW,315,6.9,15.0,43,0.00,,,0.00,WUHU216HW,2013-03-13 19:02:00,
2013-03-13 15:07:00,52.2,29.7,29.71,NW,315,6.0,10.7,42,0.00,,,0.00,WUHU216HW,2013-03-13 19:07:00,
2013-03-13 15:12:00,52.0,30.1,29.71,WNW,293,5.8,10.5,43,0.00,,,0.00,WUHU216HW,2013-03-13 19:12:00,
2013-03-13 15:17:00,51.7,29.8,29.71,West,270,5.8,12.8,43,0.00,,,0.00,WUHU216HW,2013-03-13 19:17:00,
2013-03-13 15:22:00,51.5,29.6,29.71,SSW,203,7.8,12.8,43,0.00,,,0.00,WUHU216HW,2013-03-13 19:22:00,
2013-03-13 15:27:00,51.7,29.8,29.71,WNW,293,2.5,10.3,43,0.00,,,0.00,WUHU216HW,2013-03-13 19:27:00,
2013-03-13 15:32:00,51.7,29.8,29.71,WSW,248,6.5,8.5,43,0.00,,,0.00,WUHU216HW,2013-03-13 19:32:00,
2013-03-13 15:37:00,51.5,28.5,29.71,West,270,6.7,11.6,41,0.00,,,0.00,WUHU216HW,2013-03-13 19:37:00,
2013-03-13 15:42:00,51.5,28.5,29.71,WSW,248,3.8,11.6,41,0.00,,,0.00,WUHU216HW,2013-03-13 19:42:00,
2013-03-13 15:47:00,51.3,29.4,29.71,NW,315,9.6,9.6,43,0.00,,,0.00,WUHU216HW,2013-03-13 19:47:00,
2013-03-13 15:52:00,51.1,29.3,29.71,WSW,248,5.4,9.6,43,0.00,,,0.00,WUHU216HW,2013-03-13 19:52:00,
2013-03-13 15:57:00,51.3,28.4,29.71,SW,225,4.7,9.6,41,0.00,,,0.00,WUHU216HW,2013-03-13 19:57:00,
2013-03-13 16:02:00,51.3,28.4,29.71,West,270,8.5,9.2,41,0.00,,,0.00,WUHU216HW,2013-03-13 20:02:00,
2013-03-13 16:07:00,51.3,27.8,29.71,WSW,248,5.6,8.5,40,0.00,,,0.00,WUHU216HW,2013-03-13 20:07:00,
2013-03-13 16:12:00,51.3,28.4,29.71,NW,315,6.7,8.5,41,0.00,,,0.00,WUHU216HW,2013-03-13 20:12:00,
2013-03-13 16:17:00,51.1,27.6,29.71,WSW,248,6.3,8.5,40,0.00,,,0.00,WUHU216HW,2013-03-13 20:17:00,
2013-03-13 16:22:00,51.1,28.2,29.71,NW,315,2.7,8.3,41,0.00,,,0.00,WUHU216HW,2013-03-13 20:22:00,
2013-03-13 16:27:00,51.1,28.7,29.71,WSW,248,4.9,8.3,42,0.00,,,0.00,WUHU216HW,2013-03-13 20:27:00,
2013-03-13 16:32:00,50.9,28.5,29.71,NNW,338,2.5,7.2,42,0.00,,,0.00,WUHU216HW,2013-03-13 20:32:00,
2013-03-13 16:37:00,50.8,27.8,29.71,NW,315,7.2,7.4,41,0.00,,,0.00,WUHU216HW,2013-03-13 20:37:00,
2013-03-13 16:42:00,50.8,27.8,29.71,NNW,338,9.8,9.8,41,0.00,,,0.00,WUHU216HW,2013-03-13 20:42:00,
2013-03-13 16:47:00,50.8,27.8,29.71,NW,315,10.1,11.0,41,0.00,,,0.00,WUHU216HW,2013-03-13 20:47:00,
2013-03-13 16:52:00,50.8,27.3,29.71,WSW,248,5.1,11.0,40,0.00,,,0.00,WUHU216HW,2013-03-13 20:52:00,
2013-03-13 16:57:00,50.8,27.3,29.71,West,270,8.9,9.4,40,0.00,,,0.00,WUHU216HW,2013-03-13 20:57:00,
2013-03-13 17:02:00,50.6,26.5,29.71,WNW,293,8.1,9.4,39,0.00,,,0.00,WUHU216HW,2013-03-13 21:02:00,
2013-03-13 17:07:00,50.6,26.5,29.71,NW,315,7.8,8.9,39,0.00,,,0.00,WUHU216HW,2013-03-13 21:07:00,
2013-03-13 17:12:00,50.8,25.9,29.71,West,270,6.0,8.5,38,0.00,,,0.00,WUHU216HW,2013-03-13 21:12:00,
2013-03-13 17:17:00,50.8,26.7,29.71,WSW,248,6.3,10.1,39,0.00,,,0.00,WUHU216HW,2013-03-13 21:17:00,
2013-03-13 17:22:00,50.6,26.5,29.71,WNW,293,5.6,10.1,39,0.00,,,0.00,WUHU216HW,2013-03-13 21:22:00,
2013-03-13 17:27:00,50.4,27.0,29.71,NW,315,3.4,8.7,40,0.00,,,0.00,WUHU216HW,2013-03-13 21:27:00,
2013-03-13 17:32:00,50.6,27.1,29.71,NW,315,2.2,7.2,40,0.00,,,0.00,WUHU216HW,2013-03-13 21:32:00,
2013-03-13 17:37:00,50.8,26.7,29.71,WNW,293,8.5,9.8,39,0.00,,,0.00,WUHU216HW,2013-03-13 21:37:00,
2013-03-13 17:42:00,50.4,24.9,29.71,SW,225,13.2,13.2,37,0.00,,,0.00,WUHU216HW,2013-03-13 21:42:00,
2013-03-13 17:47:00,50.0,26.6,29.71,West,270,4.7,13.2,40,0.00,,,0.00,WUHU216HW,2013-03-13 21:47:00,
2013-03-13 17:52:00,50.0,25.9,29.71,WSW,248,9.8,12.5,39,0.00,,,0.00,WUHU216HW,2013-03-13 21:52:00,
2013-03-13 17:57:00,49.7,24.9,29.72,WSW,248,11.6,13.4,38,0.00,,,0.00,WUHU216HW,2013-03-13 21:57:00,
2013-03-13 18:02:00,49.3,23.9,29.72,SW,225,6.3,13.4,37,0.00,,,0.00,WUHU216HW,2013-03-13 22:02:00,
2013-03-13 18:07:00,49.0,23.0,29.72,West,270,5.4,12.8,36,0.00,,,0.00,WUHU216HW,2013-03-13 22:07:00,
2013-03-13 18:12:00,48.6,24.0,29.72,West,270,6.9,10.1,38,0.00,,,0.00,WUHU216HW,2013-03-13 22:12:00,
2013-03-13 18:18:00,48.2,22.3,29.72,SW,225,4.0,10.1,36,0.00,,,0.00,WUHU216HW,2013-03-13 22:18:00,
2013-03-13 18:23:00,48.1,23.5,29.73,WSW,248,2.9,8.5,38,0.00,,,0.00,WUHU216HW,2013-03-13 22:23:00,
2013-03-13 18:28:00,47.9,23.4,29.73,WSW,248,3.8,8.5,38,0.00,,,0.00,WUHU216HW,2013-03-13 22:28:00,
2013-03-13 18:33:00,47.5,23.0,29.73,West,270,6.3,7.8,38,0.00,,,0.00,WUHU216HW,2013-03-13 22:33:00,
2013-03-13 18:38:00,47.2,23.4,29.73,NW,315,5.4,8.5,39,0.00,,,0.00,WUHU216HW,2013-03-13 22:38:00,
2013-03-13 18:43:00,47.0,23.2,29.73,West,270,3.4,8.5,39,0.00,,,0.00,WUHU216HW,2013-03-13 22:43:00,
2013-03-13 18:48:00,46.8,23.0,29.73,WSW,248,2.5,8.5,39,0.00,,,0.00,WUHU216HW,2013-03-13 22:48:00,
2013-03-13 18:53:00,46.4,22.8,29.74,NW,315,6.3,7.6,39,0.00,,,0.00,WUHU216HW,2013-03-13 22:53:00,
2013-03-13 18:58:00,46.3,23.2,29.74,NW,315,8.5,8.5,40,0.00,,,0.00,WUHU216HW,2013-03-13 22:58:00,
2013-03-13 19:03:00,46.1,23.0,29.74,WSW,248,3.4,8.5,40,0.00,,,0.00,WUHU216HW,2013-03-13 23:03:00,
2013-03-13 19:08:00,45.9,24.0,29.74,West,270,2.9,6.3,42,0.00,,,0.00,WUHU216HW,2013-03-13 23:08:00,
2013-03-13 19:13:00,45.7,23.9,29.74,West,270,3.4,6.3,42,0.00,,,0.00,WUHU216HW,2013-03-13 23:13:00,
2013-03-13 19:18:00,45.4,23.5,29.74,WSW,248,0.9,6.5,42,0.00,,,0.00,WUHU216HW,2013-03-13 23:18:00,
2013-03-13 19:23:00,45.2,23.3,29.75,South,180,2.7,6.5,42,0.00,,,0.00,WUHU216HW,2013-03-13 23:23:00,
2013-03-13 19:28:00,45.0,23.2,29.74,WSW,248,6.0,8.1,42,0.00,,,0.00,WUHU216HW,2013-03-13 23:28:00,
2013-03-13 19:33:00,44.8,23.1,29.75,West,270,1.6,8.1,42,0.00,,,0.00,WUHU216HW,2013-03-13 23:33:00,
2013-03-13 19:38:00,44.6,23.4,29.75,WSW,248,3.4,6.7,43,0.00,,,0.00,WUHU216HW,2013-03-13 23:38:00,
2013-03-13 19:43:00,44.3,23.0,29.75,WSW,248,3.1,6.7,43,0.00,,,0.00,WUHU216HW,2013-03-13 23:43:00,
2013-03-13 19:48:00,44.1,23.0,29.75,WNW,293,2.7,6.0,43,0.00,,,0.00,WUHU216HW,2013-03-13 23:48:00,
2013-03-13 19:53:00,43.9,22.8,29.75,West,270,1.1,5.6,43,0.00,,,0.00,WUHU216HW,2013-03-13 23:53:00,
2013-03-13 19:58:00,43.7,22.6,29.76,NW,315,2.5,6.7,43,0.00,,,0.00,WUHU216HW,2013-03-13 23:58:00,
2013-03-13 20:03:00,43.6,22.4,29.76,WNW,293,2.5,6.7,43,0.00,,,0.00,WUHU216HW,2013-03-14 00:03:00,
2013-03-13 20:08:00,43.4,22.2,29.76,WSW,248,2.7,5.8,43,0.00,,,0.00,WUHU216HW,2013-03-14 00:08:00,
2013-03-13 20:13:00,43.2,22.7,29.77,SW,225,3.4,5.4,44,0.00,,,0.00,WUHU216HW,2013-03-14 00:13:00,
2013-03-13 20:18:00,43.2,22.7,29.77,WSW,248,3.1,5.8,44,0.00,,,0.00,WUHU216HW,2013-03-14 00:18:00,
2013-03-13 20:23:00,42.8,21.8,29.77,SW,225,1.1,5.8,43,0.00,,,0.00,WUHU216HW,2013-03-14 00:23:00,
2013-03-13 20:28:00,42.8,22.3,29.77,SW,225,2.5,4.3,44,0.00,,,0.00,WUHU216HW,2013-03-14 00:28:00,
2013-03-13 20:33:00,42.7,22.7,29.77,WSW,248,3.8,5.1,45,0.00,,,0.00,WUHU216HW,2013-03-14 00:33:00,
2013-03-13 20:38:00,42.5,22.5,29.77,WSW,248,2.2,5.1,45,0.00,,,0.00,WUHU216HW,2013-03-14 00:38:00,
2013-03-13 20:43:00,42.1,22.1,29.77,SSW,203,1.3,3.4,45,0.00,,,0.00,WUHU216HW,2013-03-14 00:43:00,
2013-03-13 20:48:00,42.1,22.1,29.77,West,270,1.8,3.4,45,0.00,,,0.00,WUHU216HW,2013-03-14 00:48:00,
2013-03-13 20:53:00,41.8,22.3,29.77,WSW,248,2.2,4.0,46,0.00,,,0.00,WUHU216HW,2013-03-14 00:53:00,
2013-03-13 20:58:00,41.6,22.2,29.77,WSW,248,0.7,4.0,46,0.00,,,0.00,WUHU216HW,2013-03-14 00:58:00,
2013-03-13 21:03:00,41.4,22.1,29.77,WSW,248,1.8,2.5,46,0.00,,,0.00,WUHU216HW,2013-03-14 01:03:00,
2013-03-13 21:08:00,41.4,22.1,29.77,WSW,248,1.8,3.1,46,0.00,,,0.00,WUHU216HW,2013-03-14 01:08:00,
2013-03-13 21:13:00,41.2,22.4,29.77,WSW,248,3.1,4.3,47,0.00,,,0.00,WUHU216HW,2013-03-14 01:13:00,
2013-03-13 21:18:00,41.0,22.2,29.77,SW,225,2.7,4.3,47,0.00,,,0.00,WUHU216HW,2013-03-14 01:18:00,
2013-03-13 21:23:00,40.9,22.1,29.78,WSW,248,3.8,3.8,47,0.00,,,0.00,WUHU216HW,2013-03-14 01:23:00,
2013-03-13 21:28:00,40.9,22.1,29.78,SW,225,2.5,4.0,47,0.00,,,0.00,WUHU216HW,2013-03-14 01:28:00,
2013-03-13 21:33:00,40.7,22.4,29.78,NW,315,2.2,4.0,48,0.00,,,0.00,WUHU216HW,2013-03-14 01:33:00,
2013-03-13 21:38:00,40.5,22.2,29.78,WSW,248,3.4,3.4,48,0.00,,,0.00,WUHU216HW,2013-03-14 01:38:00,
2013-03-13 21:43:00,40.3,22.1,29.78,WSW,248,1.1,3.4,48,0.00,,,0.00,WUHU216HW,2013-03-14 01:43:00,
2013-03-13 21:48:00,40.0,21.8,29.78,SW,225,1.1,3.4,48,0.00,,,0.00,WUHU216HW,2013-03-14 01:48:00,
2013-03-13 21:53:00,40.0,22.2,29.78,WSW,248,2.2,3.1,49,0.00,,,0.00,WUHU216HW,2013-03-14 01:53:00,
2013-03-13 21:58:00,39.8,22.2,29.78,WSW,248,1.3,3.1,49,0.00,,,0.00,WUHU216HW,2013-03-14 01:58:00,
2013-03-13 22:03:00,39.6,22.0,29.78,WSW,248,1.1,3.4,49,0.00,,,0.00,WUHU216HW,2013-03-14 02:03:00,
2013-03-13 22:08:00,39.4,21.8,29.78,SW,225,1.1,3.4,49,0.00,,,0.00,WUHU216HW,2013-03-14 02:08:00,
2013-03-13 22:13:00,39.1,22.0,29.78,West,270,1.6,1.6,50,0.00,,,0.00,WUHU216HW,2013-03-14 02:13:00,
2013-03-13 22:18:00,38.7,21.7,29.78,WSW,248,0.4,1.6,50,0.00,,,0.00,WUHU216HW,2013-03-14 02:18:00,
2013-03-13 22:23:00,38.3,21.8,29.78,WSW,248,0.4,1.6,51,0.00,,,0.00,WUHU216HW,2013-03-14 02:23:00,
2013-03-13 22:28:00,38.0,21.4,29.78,WNW,293,0.0,1.1,51,0.00,,,0.00,WUHU216HW,2013-03-14 02:28:00,
2013-03-13 22:33:00,37.8,21.7,29.78,WNW,293,0.0,0.4,52,0.00,,,0.00,WUHU216HW,2013-03-14 02:33:00,
2013-03-13 22:38:00,37.4,22.2,29.78,WSW,248,0.0,0.7,54,0.00,,,0.00,WUHU216HW,2013-03-14 02:38:00,
2013-03-13 22:43:00,37.1,22.0,29.78,WSW,248,0.2,0.7,54,0.00,,,0.00,WUHU216HW,2013-03-14 02:43:00,
2013-03-13 22:48:00,36.7,22.1,29.78,WSW,248,0.4,0.7,55,0.00,,,0.00,WUHU216HW,2013-03-14 02:48:00,
2013-03-13 22:53:00,36.4,21.7,29.78,WSW,248,0.2,0.7,55,0.00,,,0.00,WUHU216HW,2013-03-14 02:53:00,
2013-03-13 22:58:00,36.2,22.0,29.77,West,270,0.4,0.9,56,0.00,,,0.00,WUHU216HW,2013-03-14 02:58:00,
2013-03-13 23:03:00,35.8,22.5,29.77,West,270,0.7,0.9,58,0.00,,,0.00,WUHU216HW,2013-03-14 03:03:00,
2013-03-13 23:08:00,35.5,22.6,29.77,West,270,0.4,0.9,59,0.00,,,0.00,WUHU216HW,2013-03-14 03:08:00,
2013-03-13 23:13:00,35.1,22.7,29.77,West,270,0.7,0.7,60,0.00,,,0.00,WUHU216HW,2013-03-14 03:13:00,
2013-03-13 23:18:00,34.7,21.9,29.77,West,270,0.0,0.7,59,0.00,,,0.00,WUHU216HW,2013-03-14 03:18:00,
2013-03-13 23:23:00,34.6,22.1,29.77,West,270,0.9,1.1,60,0.00,,,0.00,WUHU216HW,2013-03-14 03:23:00,
2013-03-13 23:28:00,34.4,22.0,29.77,West,270,0.4,1.1,60,0.00,,,0.00,WUHU216HW,2013-03-14 03:28:00,
2013-03-13 23:33:00,34.2,22.5,29.77,WSW,248,1.1,1.3,62,0.00,,,0.00,WUHU216HW,2013-03-14 03:33:00,
2013-03-13 23:38:00,34.2,23.2,29.77,West,270,0.9,1.8,64,0.00,,,0.00,WUHU216HW,2013-03-14 03:38:00,
2013-03-13 23:43:00,34.2,22.9,29.77,West,270,1.1,1.8,63,0.00,,,0.00,WUHU216HW,2013-03-14 03:43:00,
2013-03-13 23:48:00,34.2,22.1,29.76,West,270,0.7,2.5,61,0.00,,,0.00,WUHU216HW,2013-03-14 03:48:00,
2013-03-13 23:53:00,34.2,22.1,29.76,WNW,293,0.4,2.5,61,0.00,,,0.00,WUHU216HW,2013-03-14 03:53:00,
2013-03-13 23:58:00,34.0,21.6,29.77,West,270,0.4,1.1,60,0.00,,,0.00,WUHU216HW,2013-03-14 03:58:00,